Time,TemperatureF,DewpointF,PressureIn,WindDirection,WindDirectionDegrees,WindSpeedMPH,WindSpeedGustMPH,Humidity,HourlyPrecipIn,Conditions,Clouds,dailyrainin,SolarRadiationWatts/m^2,SoftwareType,DateUTC
2013-08-07 00:01:00,84.1,67.7,29.82,SSE,152,0.0,2.3,58,0.00,CLR,,0.00,0.0,WeatherDisplay:10.37,2013-08-07 05:01:00,
2013-08-07 00:06:00,83.9,67.5,29.82,SSE,152,1.2,2.3,58,0.00,CLR,,0.00,0.0,WeatherDisplay:10.37,2013-08-07 05:06:00,
2013-08-07 00:11:00,83.7,67.8,29.82,SSE,152,0.7,1.2,59,0.00,CLR,,0.00,0.0,WeatherDisplay:10.37,2013-08-07 05:11:00,
2013-08-07 00:16:00,83.6,67.8,29.82,SSE,152,1.3,3.5,59,0.00,CLR,,0.00,0.0,WeatherDisplay:10.37,2013-08-07 05:16:00,
2013-08-07 00:21:00,83.4,67.6,29.82,SSE,152,1.2,4.0,59,0.00,CLR,,0.00,0.0,WeatherDisplay:10.37,2013-08-07 05:21:00,
2013-08-07 00:26:00,83.1,67.8,29.82,SSE,152,0.0,0.0,60,0.00,CLR,,0.00,0.0,WeatherDisplay:10.37,2013-08-07 05:26:00,
2013-08-07 00:31:00,82.8,68.0,29.82,SSE,152,0.0,0.0,61,0.00,CLR,,0.00,0.0,WeatherDisplay:10.37,2013-08-07 05:31:00,
2013-08-07 00:36:00,82.4,68.1,29.82,SSE,152,1.5,2.3,62,0.00,CLR,,0.00,0.0,WeatherDisplay:10.37,2013-08-07 05:36:00,
2013-08-07 00:41:00,82.2,67.9,29.82,SSE,152,0.8,3.5,62,0.00,CLR,,0.00,0.0,WeatherDisplay:10.37,2013-08-07 05:41:00,
2013-08-07 00:46:00,81.8,68.0,29.82,SSE,152,0.0,0.0,63,0.00,CLR,,0.00,0.0,WeatherDisplay:10.37,2013-08-07 05:46:00,
2013-08-07 00:51:00,81.5,67.7,29.82,SSE,152,0.0,0.0,63,0.00,CLR,,0.00,0.0,WeatherDisplay:10.37,2013-08-07 05:51:00,
2013-08-07 00:56:00,81.3,67.5,29.81,SSE,152,0.0,0.0,63,0.00,CLR,,0.00,0.0,WeatherDisplay:10.37,2013-08-07 05:56:00,
2013-08-07 01:01:00,81.2,67.4,29.81,SSE,152,0.6,2.3,63,0.00,CLR,,0.00,0.0,WeatherDisplay:10.37,2013-08-07 06:01:00,
2013-08-07 01:06:00,81.3,67.5,29.81,SSE,152,0.0,1.2,63,0.00,CLR,,0.00,0.0,WeatherDisplay:10.37,2013-08-07 06:06:00,
2013-08-07 01:11:00,81.2,67.4,29.81,SSE,152,0.0,2.3,63,0.00,CLR,,0.00,0.0,WeatherDisplay:10.37,2013-08-07 06:11:00,
2013-08-07 01:16:00,81.2,67.4,29.81,SSE,152,0.0,0.0,63,0.00,CLR,,0.00,0.0,WeatherDisplay:10.37,2013-08-07 06:16:00,
2013-08-07 01:21:00,81.1,67.3,29.81,SSE,152,0.0,0.0,63,0.00,CLR,,0.00,0.0,WeatherDisplay:10.37,2013-08-07 06:21:00,
2013-08-07 01:26:00,80.9,67.6,29.81,SSE,152,0.0,0.0,64,0.00,CLR,,0.00,0.0,WeatherDisplay:10.37,2013-08-07 06:26:00,
2013-08-07 01:31:00,80.6,67.3,29.81,SSE,152,0.9,4.6,64,0.00,CLR,,0.00,0.0,WeatherDisplay:10.37,2013-08-07 06:31:00,
2013-08-07 01:36:00,81.0,66.8,29.81,SSE,152,0.6,3.5,62,0.00,CLR,,0.00,0.0,WeatherDisplay:10.37,2013-08-07 06:36:00,
2013-08-07 01:41:00,80.8,67.0,29.80,SSE,152,0.0,0.0,63,0.00,CLR,,0.00,0.0,WeatherDisplay:10.37,2013-08-07 06:41:00,
2013-08-07 01:46:00,80.4,67.1,29.80,SSE,152,2.5,4.0,64,0.00,CLR,,0.00,0.0,WeatherDisplay:10.37,2013-08-07 06:46:00,
2013-08-07 01:51:00,80.4,66.6,29.81,SSE,152,1.4,3.5,63,0.00,CLR,,0.00,0.0,WeatherDisplay:10.37,2013-08-07 06:51:00,
2013-08-07 01:56:00,80.5,66.3,29.81,SSE,152,1.3,3.5,62,0.00,CLR,,0.00,0.0,WeatherDisplay:10.37,2013-08-07 06:56:00,
2013-08-07 02:01:00,80.5,66.3,29.80,SSE,152,2.3,4.6,62,0.00,CLR,,0.00,0.0,WeatherDisplay:10.37,2013-08-07 07:01:00,
2013-08-07 02:06:00,80.6,66.4,29.80,SSE,152,2.4,5.0,62,0.00,CLR,,0.00,0.0,WeatherDisplay:10.37,2013-08-07 07:06:00,
2013-08-07 02:11:00,80.7,66.5,29.81,SSE,152,1.6,3.5,62,0.00,CLR,,0.00,0.0,WeatherDisplay:10.37,2013-08-07 07:11:00,
2013-08-07 02:16:00,80.6,66.4,29.80,SSE,152,0.1,1.0,62,0.00,CLR,,0.00,0.0,WeatherDisplay:10.37,2013-08-07 07:16:00,
2013-08-07 02:21:00,80.1,66.8,29.80,SSE,152,0.0,0.0,64,0.00,CLR,,0.00,0.0,WeatherDisplay:10.37,2013-08-07 07:21:00,
2013-08-07 02:26:00,79.5,66.7,29.80,SSE,152,0.1,1.2,65,0.00,CLR,,0.00,0.0,WeatherDisplay:10.37,2013-08-07 07:26:00,
2013-08-07 02:31:00,79.2,66.9,29.80,SSE,152,1.5,4.0,66,0.00,CLR,,0.00,0.0,WeatherDisplay:10.37,2013-08-07 07:31:00,
2013-08-07 02:36:00,79.0,66.7,29.80,SSE,152,0.2,2.3,66,0.00,CLR,,0.00,0.0,WeatherDisplay:10.37,2013-08-07 07:36:00,
2013-08-07 02:41:00,78.8,66.5,29.80,SSE,152,3.9,4.0,66,0.00,CLR,,0.00,0.0,WeatherDisplay:10.37,2013-08-07 07:41:00,
2013-08-07 02:46:00,79.3,66.5,29.80,SSE,152,1.3,4.6,65,0.00,CLR,,0.00,0.0,WeatherDisplay:10.37,2013-08-07 07:46:00,
2013-08-07 02:51:00,79.7,66.9,29.80,SSE,152,1.9,2.3,65,0.00,CLR,,0.00,0.0,WeatherDisplay:10.37,2013-08-07 07:51:00,
2013-08-07 02:56:00,79.8,66.5,29.80,SSE,152,0.1,4.6,64,0.00,CLR,,0.00,0.0,WeatherDisplay:10.37,2013-08-07 07:56:00,
2013-08-07 03:01:00,80.0,66.7,29.80,SSE,151,3.6,5.0,64,0.00,CLR,,0.00,0.0,WeatherDisplay:10.37,2013-08-07 08:01:00,
2013-08-07 03:06:00,79.8,66.5,29.80,SSE,151,0.1,1.2,64,0.00,CLR,,0.00,0.0,WeatherDisplay:10.37,2013-08-07 08:06:00,
2013-08-07 03:11:00,79.1,66.8,29.80,SSE,151,0.3,1.2,66,0.00,CLR,,0.00,0.0,WeatherDisplay:10.37,2013-08-07 08:11:00,
2013-08-07 03:16:00,78.8,66.9,29.80,SSE,151,0.5,1.2,67,0.00,CLR,,0.00,0.0,WeatherDisplay:10.37,2013-08-07 08:16:00,
2013-08-07 03:21:00,78.9,67.0,29.80,SSE,151,0.0,0.0,67,0.00,CLR,,0.00,0.0,WeatherDisplay:10.37,2013-08-07 08:21:00,
2013-08-07 03:26:00,78.9,67.0,29.80,SSE,151,0.2,1.0,67,0.00,CLR,,0.00,0.0,WeatherDisplay:10.37,2013-08-07 08:26:00,
2013-08-07 03:31:00,78.8,67.3,29.80,SSE,151,1.5,3.5,68,0.00,CLR,,0.00,0.0,WeatherDisplay:10.37,2013-08-07 08:31:00,
2013-08-07 03:36:00,78.9,67.0,29.80,SSE,151,1.2,2.3,67,0.00,CLR,,0.00,0.0,WeatherDisplay:10.37,2013-08-07 08:36:00,
2013-08-07 03:41:00,78.5,67.1,29.80,SSE,151,0.0,0.0,68,0.00,CLR,,0.00,0.0,WeatherDisplay:10.37,2013-08-07 08:41:00,
2013-08-07 03:46:00,78.3,67.3,29.80,SSE,151,0.0,0.0,69,0.00,CLR,,0.00,0.0,WeatherDisplay:10.37,2013-08-07 08:46:00,
2013-08-07 03:51:00,77.6,67.0,29.80,SSE,151,0.3,2.3,70,0.00,CLR,,0.00,0.0,WeatherDisplay:10.37,2013-08-07 08:51:00,
2013-08-07 03:56:00,76.9,67.2,29.80,SSE,151,0.0,0.0,72,0.00,CLR,,0.00,0.0,WeatherDisplay:10.37,2013-08-07 08:56:00,
2013-08-07 04:01:00,76.4,67.1,29.80,SSE,151,0.0,0.0,73,0.00,CLR,,0.00,0.0,WeatherDisplay:10.37,2013-08-07 09:01:00,
2013-08-07 04:06:00,76.2,66.9,29.80,SSE,151,0.0,0.0,73,0.00,CLR,,0.00,0.0,WeatherDisplay:10.37,2013-08-07 09:06:00,
2013-08-07 04:11:00,76.1,66.8,29.80,SSE,151,0.0,0.0,73,0.00,CLR,,0.00,0.0,WeatherDisplay:10.37,2013-08-07 09:11:00,
2013-08-07 04:16:00,76.4,67.1,29.80,SSE,151,1.3,2.3,73,0.00,CLR,,0.00,0.0,WeatherDisplay:10.37,2013-08-07 09:16:00,
2013-08-07 04:21:00,77.3,67.2,29.80,SSE,151,1.4,3.5,71,0.00,CLR,,0.00,0.0,WeatherDisplay:10.37,2013-08-07 09:21:00,
2013-08-07 04:26:00,77.3,67.2,29.80,SSE,151,0.6,2.3,71,0.00,CLR,,0.00,0.0,WeatherDisplay:10.37,2013-08-07 09:26:00,
2013-08-07 04:31:00,77.0,67.3,29.79,SSE,151,0.0,0.0,72,0.00,CLR,,0.00,0.0,WeatherDisplay:10.37,2013-08-07 09:31:00,
2013-08-07 04:36:00,77.1,67.4,29.79,SSE,161,0.0,6.9,72,0.00,CLR,,0.00,0.0,WeatherDisplay:10.37,2013-08-07 09:36:00,
2013-08-07 04:41:00,77.1,67.4,29.79,SSE,161,0.1,2.0,72,0.00,CLR,,0.00,0.0,WeatherDisplay:10.37,2013-08-07 09:41:00,
2013-08-07 04:46:00,77.7,67.5,29.79,SSE,161,0.0,0.0,71,0.00,CLR,,0.00,0.0,WeatherDisplay:10.37,2013-08-07 09:46:00,
2013-08-07 04:51:00,78.4,67.4,29.79,SSE,161,1.5,2.3,69,0.00,CLR,,0.00,0.0,WeatherDisplay:10.37,2013-08-07 09:51:00,
2013-08-07 04:56:00,78.9,67.4,29.79,South,174,1.6,3.5,68,0.00,CLR,,0.00,0.0,WeatherDisplay:10.37,2013-08-07 09:56:00,
2013-08-07 05:01:00,79.4,67.9,29.79,South,191,1.1,8.1,68,0.00,CLR,,0.00,0.0,WeatherDisplay:10.37,2013-08-07 10:01:00,
2013-08-07 05:06:00,79.6,67.7,29.79,South,191,1.5,3.5,67,0.00,CLR,,0.00,0.0,WeatherDisplay:10.37,2013-08-07 10:06:00,
2013-08-07 05:11:00,79.8,67.9,29.79,South,191,4.2,5.8,67,0.00,CLR,,0.00,0.0,WeatherDisplay:10.37,2013-08-07 10:11:00,
2013-08-07 05:16:00,80.0,68.1,29.79,South,183,2.3,5.8,67,0.00,CLR,,0.00,0.0,WeatherDisplay:10.37,2013-08-07 10:16:00,
2013-08-07 05:21:00,80.2,68.2,29.79,South,183,2.5,3.5,67,0.00,CLR,,0.00,0.0,WeatherDisplay:10.37,2013-08-07 10:21:00,
2013-08-07 05:26:00,80.0,68.1,29.79,South,178,1.4,3.5,67,0.00,CLR,,0.00,0.0,WeatherDisplay:10.37,2013-08-07 10:26:00,
2013-08-07 05:31:00,80.0,68.5,29.79,South,172,2.2,3.5,68,0.00,CLR,,0.00,0.0,WeatherDisplay:10.37,2013-08-07 10:31:00,
2013-08-07 05:36:00,79.9,68.4,29.79,South,169,1.1,2.3,68,0.00,CLR,,0.00,0.0,WeatherDisplay:10.37,2013-08-07 10:36:00,
2013-08-07 05:41:00,79.7,68.6,29.79,South,170,2.1,4.6,69,0.00,CLR,,0.00,0.0,WeatherDisplay:10.37,2013-08-07 10:41:00,
2013-08-07 05:46:00,80.0,68.9,29.79,South,171,3.6,4.6,69,0.00,CLR,,0.00,0.0,WeatherDisplay:10.37,2013-08-07 10:46:00,
2013-08-07 05:51:00,80.1,69.0,29.79,South,178,1.5,3.5,69,0.00,CLR,,0.00,0.0,WeatherDisplay:10.37,2013-08-07 10:51:00,
2013-08-07 05:56:00,80.0,68.9,29.79,South,179,2.3,6.9,69,0.00,CLR,,0.00,0.0,WeatherDisplay:10.37,2013-08-07 10:56:00,
2013-08-07 06:01:00,80.1,69.0,29.79,South,185,3.4,4.6,69,0.00,CLR,,0.00,0.0,WeatherDisplay:10.37,2013-08-07 11:01:00,
2013-08-07 06:06:00,80.1,69.0,29.79,South,180,4.6,6.0,69,0.00,CLR,,0.00,0.0,WeatherDisplay:10.37,2013-08-07 11:06:00,
2013-08-07 06:11:00,79.9,69.2,29.79,South,179,2.9,4.6,70,0.00,CLR,,0.00,0.0,WeatherDisplay:10.37,2013-08-07 11:11:00,
2013-08-07 06:16:00,79.6,69.4,29.79,South,179,0.0,2.3,71,0.00,CLR,,0.00,0.0,WeatherDisplay:10.37,2013-08-07 11:16:00,
2013-08-07 06:21:00,78.9,69.5,29.80,South,179,0.0,1.2,73,0.00,CLR,,0.00,0.0,WeatherDisplay:10.37,2013-08-07 11:21:00,
2013-08-07 06:26:00,78.2,69.2,29.80,South,179,0.4,2.0,74,0.00,CLR,,0.00,0.0,WeatherDisplay:10.37,2013-08-07 11:26:00,
2013-08-07 06:31:00,77.7,69.1,29.80,South,179,0.4,2.3,75,0.00,CLR,,0.00,0.0,WeatherDisplay:10.37,2013-08-07 11:31:00,
2013-08-07 06:36:00,77.7,69.1,29.81,SSE,168,2.2,8.1,75,0.00,CLR,,0.00,0.0,WeatherDisplay:10.37,2013-08-07 11:36:00,
2013-08-07 06:41:00,77.6,69.0,29.81,SSE,168,1.1,4.6,75,0.00,CLR,,0.00,0.0,WeatherDisplay:10.37,2013-08-07 11:41:00,
2013-08-07 06:46:00,77.3,69.1,29.81,SSE,168,1.7,4.6,76,0.00,CLR,,0.00,0.0,WeatherDisplay:10.37,2013-08-07 11:46:00,
2013-08-07 06:51:00,76.9,68.8,29.81,SSE,168,0.0,1.2,76,0.00,CLR,,0.00,5.5,WeatherDisplay:10.37,2013-08-07 11:51:00,
2013-08-07 06:56:00,76.4,69.0,29.81,SSE,168,0.0,0.0,78,0.00,CLR,,0.00,9.9,WeatherDisplay:10.37,2013-08-07 11:56:00,
2013-08-07 07:01:00,76.0,69.0,29.82,SSE,168,0.0,0.0,79,0.00,CLR,,0.00,12.1,WeatherDisplay:10.37,2013-08-07 12:01:00,
2013-08-07 07:06:00,75.9,69.3,29.82,SSE,168,0.0,0.0,80,0.00,CLR,,0.00,15.4,WeatherDisplay:10.37,2013-08-07 12:06:00,
2013-08-07 07:11:00,75.9,69.3,29.82,SSE,168,0.0,0.0,80,0.00,CLR,,0.00,19.8,WeatherDisplay:10.37,2013-08-07 12:11:00,
2013-08-07 07:16:00,76.1,69.5,29.82,SSE,168,0.0,0.0,80,0.00,CLR,,0.00,23.1,WeatherDisplay:10.37,2013-08-07 12:16:00,
2013-08-07 07:21:00,76.4,69.8,29.83,SSE,168,3.3,6.0,80,0.00,CLR,,0.00,27.5,WeatherDisplay:10.37,2013-08-07 12:21:00,
2013-08-07 07:26:00,76.8,70.2,29.82,SSE,168,0.2,1.2,80,0.00,CLR,,0.00,35.2,WeatherDisplay:10.37,2013-08-07 12:26:00,
2013-08-07 07:31:00,77.3,70.3,29.83,SSE,168,0.0,0.0,79,0.00,CLR,,0.00,53.9,WeatherDisplay:10.37,2013-08-07 12:31:00,
2013-08-07 07:36:00,77.8,70.8,29.83,SSE,168,0.0,0.0,79,0.00,CLR,,0.00,42.9,WeatherDisplay:10.37,2013-08-07 12:36:00,
2013-08-07 07:41:00,78.4,71.0,29.83,SSE,168,0.0,0.0,78,0.00,CLR,,0.00,48.4,WeatherDisplay:10.37,2013-08-07 12:41:00,
2013-08-07 07:46:00,78.9,71.1,29.83,SSE,168,0.0,0.0,77,0.00,CLR,,0.00,59.4,WeatherDisplay:10.37,2013-08-07 12:46:00,
2013-08-07 07:51:00,79.1,71.3,29.83,SSE,168,0.0,0.0,77,0.00,CLR,,0.00,99.0,WeatherDisplay:10.37,2013-08-07 12:51:00,
2013-08-07 07:56:00,79.7,71.8,29.83,SSE,168,0.0,0.0,77,0.00,CLR,,0.00,96.8,WeatherDisplay:10.37,2013-08-07 12:56:00,
2013-08-07 08:01:00,80.6,71.9,29.84,SSE,168,0.0,0.0,75,0.00,SCT,,0.00,96.8,WeatherDisplay:10.37,2013-08-07 13:01:00,
2013-08-07 08:06:00,81.2,71.7,29.84,SSE,168,0.0,0.0,73,0.00,SCT,,0.00,115.5,WeatherDisplay:10.37,2013-08-07 13:06:00,
2013-08-07 08:11:00,81.7,71.8,29.84,SSE,168,1.3,2.0,72,0.00,SCT,,0.00,148.5,WeatherDisplay:10.37,2013-08-07 13:11:00,
2013-08-07 08:16:00,82.5,72.1,29.84,South,173,2.7,8.1,71,0.00,SCT,,0.00,140.8,WeatherDisplay:10.37,2013-08-07 13:16:00,
2013-08-07 08:21:00,83.0,72.2,29.84,South,174,1.7,6.9,70,0.00,SCT,,0.00,143.0,WeatherDisplay:10.37,2013-08-07 13:21:00,
2013-08-07 08:26:00,83.5,72.3,29.84,SSW,199,6.6,11.5,69,0.00,SCT,,0.00,278.3,WeatherDisplay:10.37,2013-08-07 13:26:00,
2013-08-07 08:31:00,83.7,72.0,29.84,South,187,6.7,12.7,68,0.00,BKN,,0.00,135.3,WeatherDisplay:10.37,2013-08-07 13:31:00,
2013-08-07 08:36:00,83.1,71.9,29.84,SSW,193,4.6,9.0,69,0.00,BKN,,0.00,220.0,WeatherDisplay:10.37,2013-08-07 13:36:00,
2013-08-07 08:41:00,82.8,72.0,29.84,South,187,3.7,7.0,70,0.00,BKN,,0.00,137.5,WeatherDisplay:10.37,2013-08-07 13:41:00,
2013-08-07 08:46:00,82.3,72.0,29.84,South,191,2.7,6.9,71,0.00,OVC,,0.00,315.7,WeatherDisplay:10.37,2013-08-07 13:46:00,
2013-08-07 08:51:00,83.4,72.6,29.84,SSW,201,4.9,11.5,70,0.00,OVC,,0.00,328.9,WeatherDisplay:10.37,2013-08-07 13:51:00,
2013-08-07 08:56:00,83.9,72.6,29.84,South,180,3.4,5.8,69,0.00,OVC,,0.00,339.9,WeatherDisplay:10.37,2013-08-07 13:56:00,
2013-08-07 09:01:00,84.0,72.3,29.84,SW,214,4.8,10.0,68,0.00,SCT,,0.00,355.3,WeatherDisplay:10.37,2013-08-07 14:01:00,
2013-08-07 09:06:00,84.5,72.3,29.84,South,187,4.0,11.5,67,0.00,SCT,,0.00,377.3,WeatherDisplay:10.37,2013-08-07 14:06:00,
2013-08-07 09:11:00,84.6,72.4,29.84,SSE,151,2.2,6.9,67,0.00,SCT,,0.00,396.0,WeatherDisplay:10.37,2013-08-07 14:11:00,
2013-08-07 09:16:00,85.0,72.4,29.84,South,187,2.6,8.1,66,0.00,SCT,,0.00,418.0,WeatherDisplay:10.37,2013-08-07 14:16:00,
2013-08-07 09:21:00,85.4,72.7,29.84,SSW,203,7.9,15.0,66,0.00,SCT,,0.00,429.0,WeatherDisplay:10.37,2013-08-07 14:21:00,
2013-08-07 09:26:00,85.6,72.5,29.84,SSW,193,4.5,6.9,65,0.00,SCT,,0.00,446.6,WeatherDisplay:10.37,2013-08-07 14:26:00,
2013-08-07 09:31:00,85.8,72.7,29.84,SW,214,8.5,12.7,65,0.00,SCT,,0.00,464.2,WeatherDisplay:10.37,2013-08-07 14:31:00,
2013-08-07 09:36:00,86.1,73.0,29.83,SSE,167,2.5,6.0,65,0.00,SCT,,0.00,482.9,WeatherDisplay:10.37,2013-08-07 14:36:00,
2013-08-07 09:41:00,86.4,72.8,29.84,South,190,7.6,12.0,64,0.00,SCT,,0.00,500.5,WeatherDisplay:10.37,2013-08-07 14:41:00,
2013-08-07 09:46:00,86.8,73.2,29.84,SSW,197,6.9,11.5,64,0.00,CLR,,0.00,528.0,WeatherDisplay:10.37,2013-08-07 14:46:00,
2013-08-07 09:51:00,87.4,72.8,29.84,SSE,157,2.7,6.9,62,0.00,CLR,,0.00,537.9,WeatherDisplay:10.37,2013-08-07 14:51:00,
2013-08-07 09:56:00,87.2,72.6,29.84,SSW,197,8.3,13.8,62,0.00,CLR,,0.00,528.0,WeatherDisplay:10.37,2013-08-07 14:56:00,
2013-08-07 10:01:00,87.3,73.2,29.84,SSW,199,7.0,11.5,63,0.00,CLR,,0.00,645.7,WeatherDisplay:10.37,2013-08-07 15:01:00,
2013-08-07 10:06:00,87.6,73.0,29.84,SSE,155,4.2,10.4,62,0.00,CLR,,0.00,673.2,WeatherDisplay:10.37,2013-08-07 15:06:00,
2013-08-07 10:11:00,87.5,73.8,29.84,SSW,200,6.5,13.8,64,0.00,CLR,,0.00,609.4,WeatherDisplay:10.37,2013-08-07 15:11:00,
2013-08-07 10:16:00,88.6,73.4,29.84,South,172,1.8,6.9,61,0.00,CLR,,0.00,673.2,WeatherDisplay:10.37,2013-08-07 15:16:00,
2013-08-07 10:21:00,89.7,74.0,29.84,South,170,3.0,9.2,60,0.00,CLR,,0.00,634.7,WeatherDisplay:10.37,2013-08-07 15:21:00,
2013-08-07 10:26:00,89.9,74.2,29.84,South,189,5.2,6.9,60,0.00,CLR,,0.00,699.6,WeatherDisplay:10.37,2013-08-07 15:26:00,
2013-08-07 10:31:00,89.5,73.3,29.84,SSW,196,7.1,10.4,59,0.00,CLR,,0.00,794.2,WeatherDisplay:10.37,2013-08-07 15:31:00,
2013-08-07 10:36:00,89.6,73.9,29.84,SSW,208,7.6,10.4,60,0.00,CLR,,0.00,508.2,WeatherDisplay:10.37,2013-08-07 15:36:00,
2013-08-07 10:41:00,90.1,74.3,29.84,SSE,162,5.3,11.5,60,0.00,CLR,,0.00,864.6,WeatherDisplay:10.37,2013-08-07 15:41:00,
2013-08-07 10:46:00,90.7,73.4,29.84,SSW,193,2.0,3.5,57,0.00,CLR,,0.00,528.0,WeatherDisplay:10.37,2013-08-07 15:46:00,
2013-08-07 10:51:00,90.3,73.0,29.84,SSW,199,7.7,9.2,57,0.00,CLR,,0.00,500.5,WeatherDisplay:10.37,2013-08-07 15:51:00,
2013-08-07 10:56:00,89.7,73.5,29.84,SSW,211,7.2,9.2,59,0.00,CLR,,0.00,448.8,WeatherDisplay:10.37,2013-08-07 15:56:00,
2013-08-07 11:01:00,90.3,74.0,29.84,SSW,196,7.2,10.0,59,0.00,CLR,,0.00,431.2,WeatherDisplay:10.37,2013-08-07 16:01:00,
2013-08-07 11:06:00,90.3,73.5,29.84,South,179,4.8,4.8,58,0.00,CLR,,0.00,691.9,WeatherDisplay:10.37,2013-08-07 16:06:00,
2013-08-07 11:11:00,90.8,72.9,29.84,South,184,2.8,11.5,56,0.00,CLR,,0.00,456.5,WeatherDisplay:10.37,2013-08-07 16:11:00,
2013-08-07 11:16:00,91.1,73.2,29.83,South,173,3.4,3.5,56,0.00,CLR,,0.00,545.6,WeatherDisplay:10.37,2013-08-07 16:16:00,
2013-08-07 11:21:00,91.3,73.9,29.83,South,191,3.5,8.0,57,0.00,CLR,,0.00,650.1,WeatherDisplay:10.37,2013-08-07 16:21:00,
2013-08-07 11:26:00,91.7,73.8,29.83,SSW,198,6.3,11.5,56,0.00,CLR,,0.00,661.1,WeatherDisplay:10.37,2013-08-07 16:26:00,
2013-08-07 11:31:00,92.2,73.2,29.83,SSW,194,5.6,11.5,54,0.00,CLR,,0.00,311.3,WeatherDisplay:10.37,2013-08-07 16:31:00,
2013-08-07 11:36:00,92.3,74.3,29.83,South,180,2.0,5.8,56,0.00,CLR,,0.00,921.8,WeatherDisplay:10.37,2013-08-07 16:36:00,
2013-08-07 11:41:00,92.8,73.2,29.83,South,185,2.6,11.5,53,0.00,CLR,,0.00,872.3,WeatherDisplay:10.37,2013-08-07 16:41:00,
2013-08-07 11:42:00,92.8,73.2,29.83,SSW,199,2.9,7.0,53,0.00,CLR,,0.00,870.1,WeatherDisplay:10.37,2013-08-07 16:42:00,
2013-08-07 11:47:00,94.0,73.7,29.83,SSW,193,8.8,13.8,52,0.00,CLR,,0.00,867.9,WeatherDisplay:10.37,2013-08-07 16:47:00,
2013-08-07 11:52:00,94.3,72.8,29.83,South,189,1.6,3.5,50,0.00,CLR,,0.00,870.1,WeatherDisplay:10.37,2013-08-07 16:52:00,
2013-08-07 11:57:00,94.6,73.1,29.83,South,185,2.9,6.9,50,0.00,CLR,,0.00,874.5,WeatherDisplay:10.37,2013-08-07 16:57:00,
2013-08-07 12:02:00,94.7,73.8,29.83,SSW,207,6.3,9.2,51,0.00,CLR,,0.00,887.7,WeatherDisplay:10.37,2013-08-07 17:02:00,
2013-08-07 12:07:00,95.0,73.4,29.82,SW,217,4.9,9.2,50,0.00,CLR,,0.00,798.6,WeatherDisplay:10.37,2013-08-07 17:07:00,
2013-08-07 12:12:00,95.7,73.5,29.82,SSW,199,11.5,17.3,49,0.00,CLR,,0.00,908.6,WeatherDisplay:10.37,2013-08-07 17:12:00,
2013-08-07 12:17:00,96.2,74.5,29.82,SW,229,11.8,15.0,50,0.00,CLR,,0.00,910.8,WeatherDisplay:10.37,2013-08-07 17:17:00,
2013-08-07 12:22:00,95.8,73.0,29.82,South,183,0.9,2.3,48,0.00,CLR,,0.00,914.1,WeatherDisplay:10.37,2013-08-07 17:22:00,
2013-08-07 12:27:00,96.2,73.3,29.82,SSW,192,10.3,19.6,48,0.00,CLR,,0.00,930.6,WeatherDisplay:10.37,2013-08-07 17:27:00,
2013-08-07 12:32:00,96.2,72.7,29.81,SSW,192,6.9,17.3,47,0.00,CLR,,0.00,943.8,WeatherDisplay:10.37,2013-08-07 17:32:00,
2013-08-07 12:37:00,97.1,74.1,29.81,South,191,5.6,9.2,48,0.00,CLR,,0.00,941.6,WeatherDisplay:10.37,2013-08-07 17:37:00,
2013-08-07 12:42:00,97.3,73.7,29.81,SSW,197,6.9,10.4,47,0.00,CLR,,0.00,941.6,WeatherDisplay:10.37,2013-08-07 17:42:00,
2013-08-07 12:47:00,97.6,72.7,29.81,SSW,194,4.3,8.1,45,0.00,CLR,,0.00,946.0,WeatherDisplay:10.37,2013-08-07 17:47:00,
2013-08-07 12:52:00,97.1,72.2,29.81,South,191,5.0,8.1,45,0.00,CLR,,0.00,949.3,WeatherDisplay:10.37,2013-08-07 17:52:00,
2013-08-07 12:57:00,97.8,74.2,29.81,SSW,192,5.9,8.1,47,0.00,CLR,,0.00,953.7,WeatherDisplay:10.37,2013-08-07 17:57:00,
2013-08-07 13:02:00,97.5,72.6,29.81,SSW,192,7.3,11.5,45,0.00,CLR,,0.00,961.4,WeatherDisplay:10.37,2013-08-07 18:02:00,
2013-08-07 13:07:00,98.2,73.2,29.81,SSW,194,4.3,9.2,45,0.00,CLR,,0.00,962.5,WeatherDisplay:10.37,2013-08-07 18:07:00,
2013-08-07 13:12:00,98.0,72.4,29.81,SSW,201,10.4,13.8,44,0.00,CLR,,0.00,969.1,WeatherDisplay:10.37,2013-08-07 18:12:00,
2013-08-07 13:17:00,98.7,73.7,29.81,SSW,210,6.5,11.5,45,0.00,CLR,,0.00,962.5,WeatherDisplay:10.37,2013-08-07 18:17:00,
2013-08-07 13:22:00,98.4,72.7,29.81,South,183,2.5,10.4,44,0.00,CLR,,0.00,966.9,WeatherDisplay:10.37,2013-08-07 18:22:00,
2013-08-07 13:27:00,99.1,73.4,29.81,SSE,154,4.0,6.9,44,0.00,CLR,,0.00,962.5,WeatherDisplay:10.37,2013-08-07 18:27:00,
2013-08-07 13:32:00,99.4,74.3,29.81,SSW,203,7.1,12.7,45,0.00,CLR,,0.00,969.1,WeatherDisplay:10.37,2013-08-07 18:32:00,
2013-08-07 13:37:00,99.1,72.0,29.81,SSE,167,0.7,2.0,42,0.00,CLR,,0.00,969.1,WeatherDisplay:10.37,2013-08-07 18:37:00,
2013-08-07 13:42:00,99.8,73.3,29.81,South,191,6.5,11.5,43,0.00,CLR,,0.00,964.7,WeatherDisplay:10.37,2013-08-07 18:42:00,
2013-08-07 13:47:00,99.5,71.6,29.81,South,176,2.7,5.8,41,0.00,CLR,,0.00,970.2,WeatherDisplay:10.37,2013-08-07 18:47:00,
2013-08-07 13:52:00,99.5,72.3,29.80,WSW,239,6.9,8.1,42,0.00,CLR,,0.00,966.9,WeatherDisplay:10.37,2013-08-07 18:52:00,
2013-08-07 13:57:00,100.0,72.1,29.80,SSW,212,9.4,13.8,41,0.00,CLR,,0.00,966.9,WeatherDisplay:10.37,2013-08-07 18:57:00,
2013-08-07 14:02:00,99.9,71.3,29.80,SW,226,5.8,6.9,40,0.00,CLR,,0.00,966.9,WeatherDisplay:10.37,2013-08-07 19:02:00,
2013-08-07 14:07:00,99.7,71.1,29.80,SSW,195,2.5,4.0,40,0.00,CLR,,0.00,957.0,WeatherDisplay:10.37,2013-08-07 19:07:00,
2013-08-07 14:12:00,100.3,70.9,29.80,SSW,195,0.8,2.3,39,0.00,CLR,,0.00,961.4,WeatherDisplay:10.37,2013-08-07 19:12:00,
2013-08-07 14:17:00,99.9,71.3,29.80,South,191,2.1,8.1,40,0.00,CLR,,0.00,953.7,WeatherDisplay:10.37,2013-08-07 19:17:00,
2013-08-07 14:22:00,100.1,73.6,29.80,South,191,0.0,0.0,43,0.00,CLR,,0.00,943.8,WeatherDisplay:10.37,2013-08-07 19:22:00,
2013-08-07 14:27:00,100.8,71.3,29.80,South,191,0.7,4.0,39,0.00,CLR,,0.00,951.5,WeatherDisplay:10.37,2013-08-07 19:27:00,
2013-08-07 14:32:00,101.1,72.3,29.80,SW,222,1.2,3.5,40,0.00,CLR,,0.00,949.3,WeatherDisplay:10.37,2013-08-07 19:32:00,
2013-08-07 14:37:00,100.8,72.1,29.80,SSW,210,3.5,8.1,40,0.00,CLR,,0.00,933.9,WeatherDisplay:10.37,2013-08-07 19:37:00,
2013-08-07 14:42:00,101.1,71.6,29.80,SW,231,2.6,4.6,39,0.00,CLR,,0.00,930.6,WeatherDisplay:10.37,2013-08-07 19:42:00,
2013-08-07 14:47:00,100.7,71.2,29.79,WSW,237,2.5,4.6,39,0.00,CLR,,0.00,910.8,WeatherDisplay:10.37,2013-08-07 19:47:00,
2013-08-07 14:52:00,101.2,72.4,29.79,WSW,237,0.4,1.2,40,0.00,CLR,,0.00,910.8,WeatherDisplay:10.37,2013-08-07 19:52:00,
2013-08-07 14:57:00,101.3,72.5,29.79,SW,236,0.5,2.3,40,0.00,CLR,,0.00,916.3,WeatherDisplay:10.37,2013-08-07 19:57:00,
2013-08-07 15:02:00,102.3,71.1,29.79,SSW,204,5.8,10.4,37,0.00,CLR,,0.00,905.3,WeatherDisplay:10.37,2013-08-07 20:02:00,
2013-08-07 15:07:00,102.6,71.3,29.78,WNW,295,4.0,9.2,37,0.00,CLR,,0.00,903.1,WeatherDisplay:10.37,2013-08-07 20:07:00,
2013-08-07 15:12:00,102.8,71.5,29.78,WNW,295,1.1,3.0,37,0.00,CLR,,0.00,875.6,WeatherDisplay:10.37,2013-08-07 20:12:00,
2013-08-07 15:17:00,102.6,72.1,29.78,WSW,240,2.0,4.6,38,0.00,CLR,,0.00,860.2,WeatherDisplay:10.37,2013-08-07 20:17:00,
2013-08-07 15:22:00,102.4,72.7,29.78,SE,143,1.6,4.6,39,0.00,CLR,,0.00,866.8,WeatherDisplay:10.37,2013-08-07 20:22:00,
2013-08-07 15:27:00,103.2,71.9,29.78,SSE,151,1.9,4.6,37,0.00,CLR,,0.00,854.7,WeatherDisplay:10.37,2013-08-07 20:27:00,
2013-08-07 15:32:00,103.1,71.0,29.78,SSW,208,6.6,10.4,36,0.00,CLR,,0.00,856.9,WeatherDisplay:10.37,2013-08-07 20:32:00,
2013-08-07 15:37:00,102.6,70.5,29.77,SSW,207,0.0,0.0,36,0.00,CLR,,0.00,850.3,WeatherDisplay:10.37,2013-08-07 20:37:00,
2013-08-07 15:42:00,103.1,72.6,29.77,SSW,207,1.0,2.3,38,0.00,CLR,,0.00,834.9,WeatherDisplay:10.37,2013-08-07 20:42:00,
2013-08-07 15:47:00,103.0,70.1,29.77,SSW,203,1.7,4.6,35,0.00,CLR,,0.00,833.8,WeatherDisplay:10.37,2013-08-07 20:47:00,
2013-08-07 15:52:00,103.2,70.2,29.77,SSW,198,0.6,2.3,35,0.00,CLR,,0.00,816.2,WeatherDisplay:10.37,2013-08-07 20:52:00,
2013-08-07 15:57:00,103.4,70.4,29.77,SSW,198,0.0,1.2,35,0.00,CLR,,0.00,810.7,WeatherDisplay:10.37,2013-08-07 20:57:00,
2013-08-07 16:02:00,103.7,71.5,29.77,SSW,195,0.2,3.0,36,0.00,CLR,,0.00,796.4,WeatherDisplay:10.37,2013-08-07 21:02:00,
2013-08-07 16:07:00,104.5,70.5,29.76,SSW,194,3.9,8.1,34,0.00,CLR,,0.00,781.0,WeatherDisplay:10.37,2013-08-07 21:07:00,
2013-08-07 16:12:00,104.4,70.4,29.76,SSW,194,0.0,1.2,34,0.00,CLR,,0.00,767.8,WeatherDisplay:10.37,2013-08-07 21:12:00,
2013-08-07 16:17:00,105.0,71.8,29.76,SSW,194,0.5,1.2,35,0.00,CLR,,0.00,760.1,WeatherDisplay:10.37,2013-08-07 21:17:00,
2013-08-07 16:22:00,104.7,68.9,29.76,South,185,2.0,7.0,32,0.00,CLR,,0.00,757.9,WeatherDisplay:10.37,2013-08-07 21:22:00,
2013-08-07 16:27:00,104.2,68.5,29.76,South,185,0.4,3.5,32,0.00,CLR,,0.00,734.8,WeatherDisplay:10.37,2013-08-07 21:27:00,
2013-08-07 16:32:00,103.8,70.8,29.76,South,177,2.0,4.6,35,0.00,CLR,,0.00,709.5,WeatherDisplay:10.37,2013-08-07 21:32:00,
2013-08-07 16:37:00,104.3,69.5,29.76,South,175,1.1,4.6,33,0.00,CLR,,0.00,721.6,WeatherDisplay:10.37,2013-08-07 21:37:00,
2013-08-07 16:42:00,103.5,69.6,29.75,South,173,1.2,3.5,34,0.00,CLR,,0.00,147.4,WeatherDisplay:10.37,2013-08-07 21:42:00,
2013-08-07 16:47:00,101.9,69.1,29.75,South,172,2.6,6.9,35,0.00,CLR,,0.00,155.1,WeatherDisplay:10.37,2013-08-07 21:47:00,
2013-08-07 16:52:00,102.6,68.9,29.75,South,172,0.2,1.2,34,0.00,CLR,,0.00,721.6,WeatherDisplay:10.37,2013-08-07 21:52:00,
2013-08-07 16:57:00,104.0,68.3,29.75,South,172,2.1,5.8,32,0.00,CLR,,0.00,683.1,WeatherDisplay:10.37,2013-08-07 21:57:00,
2013-08-07 17:02:00,104.3,70.3,29.75,South,171,0.2,1.2,34,0.00,SCT,,0.00,684.2,WeatherDisplay:10.37,2013-08-07 22:02:00,
2013-08-07 17:07:00,102.6,68.9,29.75,South,171,0.5,2.3,34,0.00,SCT,,0.00,227.7,WeatherDisplay:10.37,2013-08-07 22:07:00,
2013-08-07 17:12:00,103.1,70.1,29.75,South,171,1.2,2.3,35,0.00,SCT,,0.00,589.6,WeatherDisplay:10.37,2013-08-07 22:12:00,
2013-08-07 17:17:00,103.3,69.5,29.75,South,171,0.4,2.3,34,0.00,SCT,,0.00,628.1,WeatherDisplay:10.37,2013-08-07 22:17:00,
2013-08-07 17:22:00,102.4,69.5,29.75,South,171,0.1,1.0,35,0.00,SCT,,0.00,553.3,WeatherDisplay:10.37,2013-08-07 22:22:00,
2013-08-07 17:27:00,103.0,70.1,29.75,South,170,0.0,0.0,35,0.00,SCT,,0.00,528.0,WeatherDisplay:10.37,2013-08-07 22:27:00,
2013-08-07 17:32:00,103.2,69.4,29.74,South,170,0.0,0.0,34,0.00,BKN,,0.00,522.5,WeatherDisplay:10.37,2013-08-07 22:32:00,
2013-08-07 17:37:00,103.2,71.1,29.74,South,170,0.0,0.0,36,0.00,BKN,,0.00,508.2,WeatherDisplay:10.37,2013-08-07 22:37:00,
2013-08-07 17:42:00,103.0,71.7,29.74,SSE,166,0.1,1.2,37,0.00,BKN,,0.00,481.8,WeatherDisplay:10.37,2013-08-07 22:42:00,
2013-08-07 17:47:00,103.4,70.4,29.74,SSE,161,0.0,1.2,35,0.00,SCT,,0.00,464.2,WeatherDisplay:10.37,2013-08-07 22:47:00,
2013-08-07 17:52:00,103.4,71.2,29.74,SSE,159,2.9,5.8,36,0.00,SCT,,0.00,438.9,WeatherDisplay:10.37,2013-08-07 22:52:00,
2013-08-07 17:57:00,103.3,70.3,29.74,SSE,159,0.0,0.0,35,0.00,SCT,,0.00,268.4,WeatherDisplay:10.37,2013-08-07 22:57:00,
2013-08-07 18:02:00,103.0,71.7,29.74,SSE,156,0.3,1.2,37,0.00,CLR,,0.00,410.3,WeatherDisplay:10.37,2013-08-07 23:02:00,
2013-08-07 18:07:00,103.0,71.7,29.73,SE,145,2.3,4.6,37,0.00,CLR,,0.00,387.2,WeatherDisplay:10.37,2013-08-07 23:07:00,
2013-08-07 18:12:00,102.6,71.3,29.73,SE,144,0.8,4.6,37,0.00,CLR,,0.00,365.2,WeatherDisplay:10.37,2013-08-07 23:12:00,
2013-08-07 18:17:00,102.3,71.1,29.73,SE,143,1.2,3.5,37,0.00,CLR,,0.00,276.1,WeatherDisplay:10.37,2013-08-07 23:17:00,
2013-08-07 18:22:00,101.8,71.4,29.73,SE,135,0.8,6.0,38,0.00,CLR,,0.00,321.2,WeatherDisplay:10.37,2013-08-07 23:22:00,
2013-08-07 18:27:00,101.5,70.4,29.73,SE,132,2.2,5.8,37,0.00,CLR,,0.00,280.5,WeatherDisplay:10.37,2013-08-07 23:27:00,
2013-08-07 18:32:00,100.6,71.1,29.73,SE,127,1.7,3.5,39,0.00,CLR,,0.00,89.1,WeatherDisplay:10.37,2013-08-07 23:32:00,
2013-08-07 18:37:00,99.5,70.9,29.73,SE,125,1.4,4.6,40,0.00,CLR,,0.00,71.5,WeatherDisplay:10.37,2013-08-07 23:37:00,
2013-08-07 18:42:00,98.6,70.8,29.73,SE,124,2.0,3.5,41,0.00,CLR,,0.00,61.6,WeatherDisplay:10.37,2013-08-07 23:42:00,
2013-08-07 18:47:00,98.2,71.9,29.73,SE,124,0.7,2.3,43,0.00,SCT,,0.00,75.9,WeatherDisplay:10.37,2013-08-07 23:47:00,
2013-08-07 18:52:00,98.1,71.8,29.73,SE,124,2.1,4.6,43,0.00,SCT,,0.00,83.6,WeatherDisplay:10.37,2013-08-07 23:52:00,
2013-08-07 18:57:00,97.6,72.0,29.73,SE,124,1.6,3.5,44,0.00,SCT,,0.00,91.3,WeatherDisplay:10.37,2013-08-07 23:57:00,
2013-08-07 19:02:00,97.0,72.8,29.73,SE,124,0.0,2.3,46,0.00,BKN,,0.00,59.4,WeatherDisplay:10.37,2013-08-08 00:02:00,
2013-08-07 19:07:00,96.0,73.1,29.73,SE,124,0.1,0.0,48,0.00,BKN,,0.00,66.0,WeatherDisplay:10.37,2013-08-08 00:07:00,
2013-08-07 19:12:00,95.6,72.8,29.72,SE,124,0.4,2.3,48,0.00,BKN,,0.00,61.6,WeatherDisplay:10.37,2013-08-08 00:12:00,
2013-08-07 19:17:00,95.2,73.6,29.72,SE,124,0.2,2.3,50,0.00,BKN,,0.00,50.6,WeatherDisplay:10.37,2013-08-08 00:17:00,
2013-08-07 19:22:00,94.6,73.7,29.72,SE,124,0.0,0.0,51,0.00,BKN,,0.00,38.5,WeatherDisplay:10.37,2013-08-08 00:22:00,
2013-08-07 19:27:00,93.9,73.6,29.72,SE,124,0.2,2.0,52,0.00,BKN,,0.00,35.2,WeatherDisplay:10.37,2013-08-08 00:27:00,
2013-08-07 19:32:00,93.4,73.7,29.72,SE,124,0.0,0.0,53,0.00,SCT,,0.00,36.3,WeatherDisplay:10.37,2013-08-08 00:32:00,
2013-08-07 19:37:00,93.2,73.0,29.72,SE,124,0.2,2.3,52,0.00,SCT,,0.00,33.0,WeatherDisplay:10.37,2013-08-08 00:37:00,
2013-08-07 19:42:00,92.7,73.1,29.72,SE,124,0.0,0.0,53,0.00,SCT,,0.00,25.3,WeatherDisplay:10.37,2013-08-08 00:42:00,
2013-08-07 19:47:00,92.5,72.9,29.72,SE,124,0.0,0.0,53,0.00,CLR,,0.00,19.8,WeatherDisplay:10.37,2013-08-08 00:47:00,
2013-08-07 19:52:00,91.8,73.3,29.72,SE,124,0.1,1.2,55,0.00,CLR,,0.00,17.6,WeatherDisplay:10.37,2013-08-08 00:52:00,
2013-08-07 19:57:00,91.3,72.9,29.73,SE,124,0.0,0.0,55,0.00,CLR,,0.00,15.4,WeatherDisplay:10.37,2013-08-08 00:57:00,
2013-08-07 20:02:00,91.1,73.2,29.72,SE,124,0.0,0.0,56,0.00,CLR,,0.00,13.2,WeatherDisplay:10.37,2013-08-08 01:02:00,
2013-08-07 20:07:00,90.8,72.9,29.72,SE,124,0.0,0.0,56,0.00,CLR,,0.00,9.9,WeatherDisplay:10.37,2013-08-08 01:07:00,
2013-08-07 20:12:00,90.1,73.8,29.72,SE,124,0.2,1.2,59,0.00,CLR,,0.00,5.5,WeatherDisplay:10.37,2013-08-08 01:12:00,
2013-08-07 20:17:00,89.8,73.0,29.73,SE,124,0.0,0.0,58,0.00,CLR,,0.00,0.0,WeatherDisplay:10.37,2013-08-08 01:17:00,
2013-08-07 20:22:00,89.6,72.9,29.73,SE,124,0.0,0.0,58,0.00,CLR,,0.00,0.0,WeatherDisplay:10.37,2013-08-08 01:22:00,
2013-08-07 20:27:00,89.4,73.2,29.73,SE,124,0.0,0.0,59,0.00,CLR,,0.00,0.0,WeatherDisplay:10.37,2013-08-08 01:27:00,
2013-08-07 20:32:00,89.1,72.9,29.73,SE,124,0.1,1.2,59,0.00,CLR,,0.00,0.0,WeatherDisplay:10.37,2013-08-08 01:32:00,
2013-08-07 20:37:00,88.5,72.8,29.73,SE,124,0.0,0.0,60,0.00,CLR,,0.00,0.0,WeatherDisplay:10.37,2013-08-08 01:37:00,
2013-08-07 20:42:00,88.2,73.0,29.74,SE,124,0.0,0.0,61,0.00,CLR,,0.00,0.0,WeatherDisplay:10.37,2013-08-08 01:42:00,
2013-08-07 20:47:00,88.1,72.5,29.74,SE,124,0.0,0.0,60,0.00,CLR,,0.00,0.0,WeatherDisplay:10.37,2013-08-08 01:47:00,
2013-08-07 20:52:00,88.1,72.5,29.74,SE,124,0.0,0.0,60,0.00,CLR,,0.00,0.0,WeatherDisplay:10.37,2013-08-08 01:52:00,
2013-08-07 20:57:00,87.8,72.2,29.74,SE,124,0.0,0.0,60,0.00,CLR,,0.00,0.0,WeatherDisplay:10.37,2013-08-08 01:57:00,
2013-08-07 21:02:00,87.4,72.3,29.74,SE,124,0.3,2.0,61,0.00,CLR,,0.00,0.0,WeatherDisplay:10.37,2013-08-08 02:02:00,
2013-08-07 21:07:00,87.0,72.4,29.74,SE,124,0.0,0.0,62,0.00,CLR,,0.00,0.0,WeatherDisplay:10.37,2013-08-08 02:07:00,
2013-08-07 21:12:00,87.0,72.4,29.75,SE,124,0.0,0.0,62,0.00,CLR,,0.00,0.0,WeatherDisplay:10.37,2013-08-08 02:12:00,
2013-08-07 21:17:00,86.9,72.3,29.75,SE,124,0.3,1.2,62,0.00,CLR,,0.00,0.0,WeatherDisplay:10.37,2013-08-08 02:17:00,
2013-08-07 21:22:00,86.7,72.6,29.75,SE,124,0.0,1.2,63,0.00,CLR,,0.00,0.0,WeatherDisplay:10.37,2013-08-08 02:22:00,
2013-08-07 21:27:00,86.5,72.4,29.75,SE,124,0.0,0.0,63,0.00,CLR,,0.00,0.0,WeatherDisplay:10.37,2013-08-08 02:27:00,
2013-08-07 21:32:00,86.2,72.6,29.75,SE,124,0.1,1.2,64,0.00,CLR,,0.00,0.0,WeatherDisplay:10.37,2013-08-08 02:32:00,
2013-08-07 21:37:00,85.9,72.3,29.76,SE,124,0.1,1.2,64,0.00,CLR,,0.00,0.0,WeatherDisplay:10.37,2013-08-08 02:37:00,
2013-08-07 21:42:00,85.6,72.0,29.76,SE,124,0.6,2.0,64,0.00,CLR,,0.00,0.0,WeatherDisplay:10.37,2013-08-08 02:42:00,
2013-08-07 21:47:00,85.4,71.4,29.76,SE,124,0.0,0.0,63,0.00,CLR,,0.00,0.0,WeatherDisplay:10.37,2013-08-08 02:47:00,
2013-08-07 21:52:00,85.5,72.4,29.77,SE,124,0.5,2.3,65,0.00,CLR,,0.00,0.0,WeatherDisplay:10.37,2013-08-08 02:52:00,
2013-08-07 21:57:00,86.2,71.6,29.77,SE,128,2.2,3.5,62,0.00,CLR,,0.00,0.0,WeatherDisplay:10.37,2013-08-08 02:57:00,
2013-08-07 22:02:00,87.1,71.5,29.77,SE,128,0.7,2.3,60,0.00,CLR,,0.00,0.0,WeatherDisplay:10.37,2013-08-08 03:02:00,
2013-08-07 22:07:00,87.4,70.8,29.77,SE,128,2.2,4.6,58,0.00,CLR,,0.00,0.0,WeatherDisplay:10.37,2013-08-08 03:07:00,
2013-08-07 22:12:00,87.7,71.1,29.78,SE,128,0.4,2.3,58,0.00,CLR,,0.00,0.0,WeatherDisplay:10.37,2013-08-08 03:12:00,
2013-08-07 22:17:00,87.6,70.5,29.78,SE,128,0.8,5.0,57,0.00,CLR,,0.00,0.0,WeatherDisplay:10.37,2013-08-08 03:17:00,
2013-08-07 22:22:00,87.4,70.8,29.78,SE,128,2.0,5.8,58,0.00,CLR,,0.00,0.0,WeatherDisplay:10.37,2013-08-08 03:22:00,
2013-08-07 22:27:00,87.4,70.8,29.78,SE,128,1.8,4.6,58,0.00,CLR,,0.00,0.0,WeatherDisplay:10.37,2013-08-08 03:27:00,
2013-08-07 22:32:00,87.3,70.7,29.78,SE,128,0.8,2.3,58,0.00,BKN,,0.00,0.0,WeatherDisplay:10.37,2013-08-08 03:32:00,
2013-08-07 22:37:00,87.4,70.8,29.79,SE,128,2.0,5.8,58,0.00,BKN,,0.00,0.0,WeatherDisplay:10.37,2013-08-08 03:37:00,
2013-08-07 22:42:00,87.2,70.6,29.79,SE,128,2.6,4.6,58,0.00,BKN,,0.00,0.0,WeatherDisplay:10.37,2013-08-08 03:42:00,
2013-08-07 22:47:00,87.1,70.5,29.79,SE,129,2.4,5.8,58,0.00,SCT,,0.00,0.0,WeatherDisplay:10.37,2013-08-08 03:47:00,
2013-08-07 22:52:00,87.1,70.5,29.79,SE,129,3.2,6.9,58,0.00,SCT,,0.00,0.0,WeatherDisplay:10.37,2013-08-08 03:52:00,
2013-08-07 22:57:00,87.0,70.4,29.78,SE,130,3.0,7.0,58,0.00,SCT,,0.00,0.0,WeatherDisplay:10.37,2013-08-08 03:57:00,
2013-08-07 23:01:00,86.9,70.3,29.78,SE,131,4.5,6.9,58,0.00,SCT,,0.00,0.0,WeatherDisplay:10.37,2013-08-08 04:01:00,
2013-08-07 23:06:00,86.9,69.8,29.78,SE,135,2.2,6.9,57,0.00,CLR,,0.00,0.0,WeatherDisplay:10.37,2013-08-08 04:06:00,
2013-08-07 23:11:00,87.1,70.0,29.79,SE,135,2.4,4.6,57,0.00,CLR,,0.00,0.0,WeatherDisplay:10.37,2013-08-08 04:11:00,
2013-08-07 23:16:00,87.3,69.7,29.79,SE,136,1.0,3.5,56,0.00,CLR,,0.00,0.0,WeatherDisplay:10.37,2013-08-08 04:16:00,
2013-08-07 23:21:00,87.1,69.5,29.79,SE,136,0.7,2.3,56,0.00,CLR,,0.00,0.0,WeatherDisplay:10.37,2013-08-08 04:21:00,
2013-08-07 23:26:00,87.0,69.4,29.79,SE,136,1.2,3.5,56,0.00,CLR,,0.00,0.0,WeatherDisplay:10.37,2013-08-08 04:26:00,
2013-08-07 23:31:00,87.0,69.9,29.79,SE,136,1.8,6.0,57,0.00,CLR,,0.00,0.0,WeatherDisplay:10.37,2013-08-08 04:31:00,
2013-08-07 23:36:00,86.9,69.8,29.78,SE,136,1.6,4.6,57,0.00,CLR,,0.00,0.0,WeatherDisplay:10.37,2013-08-08 04:36:00,
2013-08-07 23:41:00,86.7,69.6,29.78,SE,136,2.9,3.5,57,0.00,CLR,,0.00,0.0,WeatherDisplay:10.37,2013-08-08 04:41:00,
2013-08-07 23:46:00,86.7,69.6,29.78,SE,136,2.3,4.6,57,0.00,CLR,,0.00,0.0,WeatherDisplay:10.37,2013-08-08 04:46:00,
2013-08-07 23:51:00,86.6,69.6,29.79,SE,136,0.4,2.3,57,0.00,CLR,,0.00,0.0,WeatherDisplay:10.37,2013-08-08 04:51:00,
2013-08-07 23:56:00,86.5,69.5,29.79,SE,136,0.7,2.3,57,0.00,CLR,,0.00,0.0,WeatherDisplay:10.37,2013-08-08 04:56:00,